,,PA_Meas_PMT16A,,PR_Meas_QMR101_102,,RH_Meas_QMH101,,SR_Meas_QMS101,,TA_Meas_QMH101,,GenWind,,GenWind,
time,status,PA,status,PR,status,RH,status,SR,status,TA,status,DirAvg,status,SpdAvg,
2015-06-26, 07:06:04,VALID,918.57,VALID,0,VALID,98.7156,VALID,73.1674,VALID,18.8853,VALID,133,VALID,0,
2015-06-26, 07:07:04,VALID,918.576,VALID,0,VALID,98.647,VALID,75.6386,VALID,18.9034,VALID,133,VALID,0,
2015-06-26, 07:08:04,VALID,918.585,VALID,0,VALID,98.5936,VALID,78.0023,VALID,18.9619,VALID,133,VALID,0,
2015-06-26, 07:09:04,VALID,918.607,VALID,0,VALID,98.5327,VALID,80.366,VALID,19.0203,VALID,133,VALID,0,
2015-06-26, 07:10:04,VALID,918.613,VALID,0,VALID,98.4793,VALID,82.9446,VALID,19.0803,VALID,133,VALID,0,
2015-06-26, 07:11:04,VALID,918.643,VALID,0,VALID,98.4107,VALID,85.5232,VALID,19.1193,VALID,133,VALID,0,
2015-06-26, 07:12:04,VALID,918.651,VALID,0,VALID,98.3497,VALID,88.2092,VALID,19.1778,VALID,133,VALID,0,
2015-06-26, 07:13:04,VALID,918.646,VALID,0,VALID,98.2125,VALID,90.8952,VALID,19.2153,VALID,139,VALID,0,
2015-06-26, 07:14:04,VALID,918.675,VALID,0,VALID,98.1134,VALID,93.5812,VALID,19.2543,VALID,138,VALID,0,
2015-06-26, 07:15:04,VALID,918.69,VALID,0,VALID,98.0143,VALID,96.1598,VALID,19.3128,VALID,140,VALID,0,
2015-06-26, 07:16:04,VALID,918.681,VALID,0,VALID,97.9228,VALID,98.5235,VALID,19.3713,VALID,140,VALID,0,
2015-06-26, 07:17:04,VALID,918.719,VALID,0,VALID,97.7932,VALID,101.102,VALID,19.4103,VALID,140,VALID,0,
2015-06-26, 07:18:04,VALID,918.723,VALID,0,VALID,97.6636,VALID,103.681,VALID,19.4493,VALID,148,VALID,0,
2015-06-26, 07:19:04,VALID,918.732,VALID,0,VALID,97.5187,VALID,106.367,VALID,19.5078,VALID,150,VALID,0,
2015-06-26, 07:20:04,VALID,918.721,VALID,0,VALID,97.3586,VALID,108.945,VALID,19.5483,VALID,150,VALID,0,
2015-06-26, 07:21:04,VALID,918.723,VALID,0,VALID,97.1071,VALID,111.524,VALID,19.5873,VALID,150,VALID,0,
2015-06-26, 07:22:04,VALID,918.706,VALID,0,VALID,96.8174,VALID,114.317,VALID,19.6263,VALID,149,VALID,0,
2015-06-26, 07:23:04,VALID,918.731,VALID,0,VALID,96.6497,VALID,117.111,VALID,19.6653,VALID,145,VALID,0,
2015-06-26, 07:24:04,VALID,918.753,VALID,0,VALID,96.3066,VALID,119.797,VALID,19.6848,VALID,162,VALID,0,
2015-06-26, 07:25:04,VALID,918.777,VALID,0,VALID,96.0322,VALID,122.483,VALID,19.7238,VALID,165,VALID,0,
2015-06-26, 07:26:04,VALID,918.812,VALID,0,VALID,95.7806,VALID,125.491,VALID,19.7238,VALID,157,VALID,0,
2015-06-26, 07:27:04,VALID,918.879,VALID,0,VALID,95.6357,VALID,128.177,VALID,19.7418,VALID,165,VALID,0,
2015-06-26, 07:28:04,VALID,918.911,VALID,0,VALID,95.3384,VALID,131.401,VALID,19.7223,VALID,163,VALID,0,
2015-06-26, 07:29:04,VALID,918.891,VALID,0,VALID,95.3003,VALID,134.409,VALID,19.7613,VALID,147,VALID,0,
2015-06-26, 07:30:04,VALID,918.911,VALID,0,VALID,95.3689,VALID,137.525,VALID,19.8198,VALID,141,VALID,0,
2015-06-26, 07:31:04,VALID,918.915,VALID,0,VALID,95.1631,VALID,140.748,VALID,19.8393,VALID,141,VALID,0,
2015-06-26, 07:32:04,VALID,918.932,VALID,0,VALID,94.4922,VALID,144.079,VALID,19.8393,VALID,141,VALID,0,
2015-06-26, 07:33:04,VALID,918.911,VALID,0,VALID,94.5761,VALID,147.732,VALID,19.8978,VALID,145,VALID,0,
2015-06-26, 07:34:04,VALID,918.931,VALID,0,VALID,94.2635,VALID,150.955,VALID,19.8978,VALID,153,VALID,0,
2015-06-26, 07:35:04,VALID,918.938,VALID,0,VALID,94.5685,VALID,154.285,VALID,19.9563,VALID,144,VALID,0,
2015-06-26, 07:36:04,VALID,918.936,VALID,0,VALID,94.5609,VALID,157.616,VALID,20.0148,VALID,138,VALID,0,
2015-06-26, 07:37:04,VALID,918.94,VALID,0,VALID,94.4922,VALID,161.377,VALID,20.0538,VALID,146,VALID,0,
2015-06-26, 07:38:04,VALID,918.982,VALID,0,VALID,94.4617,VALID,164.922,VALID,20.1318,VALID,144,VALID,0,
2015-06-26, 07:39:04,VALID,919.018,VALID,0,VALID,94.5227,VALID,168.468,VALID,20.2098,VALID,138,VALID,0.222656,
2015-06-26, 07:40:04,VALID,918.999,VALID,0,VALID,94.2559,VALID,172.013,VALID,20.2489,VALID,148,VALID,0.00273437,
2015-06-26, 07:41:04,VALID,919.043,VALID,0,VALID,93.6384,VALID,175.451,VALID,20.2863,VALID,157,VALID,0,
2015-06-26, 07:42:04,VALID,919.055,VALID,0,VALID,92.7084,VALID,178.567,VALID,20.3838,VALID,154,VALID,0,
2015-06-26, 07:43:04,VALID,919.053,VALID,0,VALID,92.1442,VALID,182.113,VALID,20.4423,VALID,145,VALID,0,
2015-06-26, 07:44:04,VALID,919.05,VALID,0,VALID,92.1442,VALID,185.981,VALID,20.5009,VALID,142,VALID,0,
2015-06-26, 07:45:04,VALID,919.045,VALID,0,VALID,91.4429,VALID,189.096,VALID,20.5594,VALID,134,VALID,0,
2015-06-26, 07:46:04,VALID,919.027,VALID,0,VALID,91.9689,VALID,192.535,VALID,20.6374,VALID,133,VALID,0,
2015-06-26, 07:47:04,VALID,919.024,VALID,0,VALID,91.3514,VALID,196.188,VALID,20.6959,VALID,131,VALID,0,
2015-06-26, 07:48:04,VALID,919.05,VALID,0,VALID,90.3604,VALID,199.626,VALID,20.7349,VALID,133,VALID,0,
2015-06-26, 07:49:04,VALID,919.086,VALID,0,VALID,89.6971,VALID,203.386,VALID,20.7934,VALID,158,VALID,0,
2015-06-26, 07:50:04,VALID,919.085,VALID,0,VALID,88.485,VALID,207.254,VALID,20.8129,VALID,145,VALID,0,
2015-06-26, 07:51:04,VALID,919.063,VALID,0,VALID,88.485,VALID,211.122,VALID,20.8714,VALID,159,VALID,0,
2015-06-26, 07:52:04,VALID,919.094,VALID,0,VALID,88.0581,VALID,214.023,VALID,20.8504,VALID,146,VALID,0,
2015-06-26, 07:53:04,VALID,919.096,VALID,0,VALID,87.0975,VALID,217.246,VALID,20.8519,VALID,152,VALID,0,
2015-06-26, 07:54:04,VALID,919.082,VALID,0,VALID,87.7303,VALID,221.436,VALID,20.7723,VALID,144,VALID,0,
2015-06-26, 07:55:04,VALID,919.088,VALID,0,VALID,87.7379,VALID,225.197,VALID,20.7934,VALID,143,VALID,0,
2015-06-26, 07:56:04,VALID,919.097,VALID,0,VALID,87.8904,VALID,228.85,VALID,20.7918,VALID,140,VALID,0,
2015-06-26, 07:57:04,VALID,919.081,VALID,0,VALID,87.2347,VALID,232.395,VALID,20.8324,VALID,142,VALID,0,
2015-06-26, 07:58:04,VALID,919.116,VALID,0,VALID,87.3567,VALID,236.263,VALID,20.8714,VALID,143,VALID,0,
2015-06-26, 07:59:04,VALID,919.116,VALID,0,VALID,87.3186,VALID,239.594,VALID,20.8894,VALID,136,VALID,0,
2015-06-26, 08:00:04,VALID,919.117,VALID,0,VALID,87.4787,VALID,243.139,VALID,20.9674,VALID,143,VALID,0,
2015-06-26, 08:01:04,VALID,919.096,VALID,0,VALID,86.2971,VALID,246.792,VALID,21.0665,VALID,141,VALID,0,
2015-06-26, 08:02:04,VALID,919.124,VALID,0,VALID,85.4737,VALID,249.801,VALID,21.1055,VALID,148,VALID,0,
2015-06-26, 08:03:04,VALID,919.117,VALID,0,VALID,85.2222,VALID,252.916,VALID,21.1657,VALID,136,VALID,0.170312,
2015-06-26, 08:04:04,VALID,919.129,VALID,0,VALID,86.2361,VALID,255.925,VALID,21.2226,VALID,128,VALID,0,
2015-06-26, 08:05:04,VALID,919.143,VALID,0,VALID,85.6643,VALID,258.933,VALID,21.2811,VALID,157,VALID,0,
2015-06-26, 08:06:04,VALID,919.126,VALID,0,VALID,85.0316,VALID,262.049,VALID,21.3786,VALID,184,VALID,0.341016,
2015-06-26, 08:07:04,VALID,919.105,VALID,0,VALID,84.7724,VALID,265.272,VALID,21.5152,VALID,147,VALID,0.00273437,
2015-06-26, 08:08:04,VALID,919.073,VALID,0,VALID,84.2616,VALID,268.495,VALID,21.5737,VALID,176,VALID,0,
2015-06-26, 08:09:04,VALID,919.082,VALID,0,VALID,84.0482,VALID,271.826,VALID,21.6306,VALID,155,VALID,0,
2015-06-26, 08:10:04,VALID,919.08,VALID,0,VALID,83.7508,VALID,275.264,VALID,21.6501,VALID,142,VALID,0,
2015-06-26, 08:11:04,VALID,919.096,VALID,0,VALID,84.0787,VALID,278.165,VALID,21.6518,VALID,137,VALID,0,
2015-06-26, 08:12:04,VALID,919.105,VALID,0,VALID,84.3226,VALID,281.173,VALID,21.6891,VALID,143,VALID,0,
2015-06-26, 08:13:04,VALID,919.118,VALID,0,VALID,84.1473,VALID,284.612,VALID,21.7883,VALID,143,VALID,0,
2015-06-26, 08:14:04,VALID,919.127,VALID,0,VALID,83.5908,VALID,287.298,VALID,21.8257,VALID,152,VALID,0,
2015-06-26, 08:15:04,VALID,919.134,VALID,0,VALID,83.5526,VALID,290.199,VALID,21.7867,VALID,134,VALID,0,
2015-06-26, 08:16:04,VALID,919.126,VALID,0,VALID,84.9172,VALID,293.744,VALID,21.8452,VALID,133,VALID,0,
2015-06-26, 08:17:04,VALID,919.133,VALID,0,VALID,84.9553,VALID,296.86,VALID,22.0013,VALID,128,VALID,0,
2015-06-26, 08:18:04,VALID,919.125,VALID,0,VALID,84.6047,VALID,300.405,VALID,22.1379,VALID,127,VALID,0,
2015-06-26, 08:19:04,VALID,919.1,VALID,0,VALID,83.9796,VALID,304.166,VALID,22.294,VALID,110,VALID,0,
2015-06-26, 08:20:04,VALID,919.081,VALID,0,VALID,82.0889,VALID,306.852,VALID,22.2745,VALID,142,VALID,0,
2015-06-26, 08:21:04,VALID,919.102,VALID,0,VALID,82.6378,VALID,310.397,VALID,22.255,VALID,134,VALID,0,
2015-06-26, 08:22:04,VALID,919.075,VALID,0,VALID,83.6441,VALID,314.158,VALID,22.2745,VALID,135,VALID,0,
2015-06-26, 08:23:04,VALID,919.098,VALID,0,VALID,83.3011,VALID,317.381,VALID,22.3135,VALID,153,VALID,0,
2015-06-26, 08:24:04,VALID,919.089,VALID,0,VALID,81.9517,VALID,320.067,VALID,22.294,VALID,168,VALID,0.314453,
2015-06-26, 08:25:04,VALID,919.134,VALID,0,VALID,82.2109,VALID,322.538,VALID,22.2159,VALID,176,VALID,0.0105469,
2015-06-26, 08:26:04,VALID,919.131,VALID,0,VALID,82.4854,VALID,326.299,VALID,22.2338,VALID,175,VALID,0,
2015-06-26, 08:27:04,VALID,919.152,VALID,0,VALID,82.0966,VALID,328.77,VALID,22.2923,VALID,122,VALID,0,
2015-06-26, 08:28:04,VALID,919.131,VALID,0,VALID,81.9288,VALID,332.101,VALID,22.4111,VALID,154,VALID,0,
2015-06-26, 08:29:04,VALID,919.112,VALID,0,VALID,81.9136,VALID,335.216,VALID,22.4501,VALID,145,VALID,0,
2015-06-26, 08:30:04,VALID,919.154,VALID,0,VALID,80.9454,VALID,338.01,VALID,22.3508,VALID,151,VALID,0,
2015-06-26, 08:31:04,VALID,919.114,VALID,0,VALID,82.3329,VALID,341.878,VALID,22.333,VALID,142,VALID,0,
2015-06-26, 08:32:04,VALID,919.104,VALID,0,VALID,81.723,VALID,345.208,VALID,22.3525,VALID,156,VALID,0,
2015-06-26, 08:33:04,VALID,919.12,VALID,0,VALID,83.1791,VALID,348.539,VALID,22.4501,VALID,141,VALID,0,
2015-06-26, 08:34:04,VALID,919.115,VALID,0,VALID,81.906,VALID,351.225,VALID,22.5867,VALID,169,VALID,0,
2015-06-26, 08:35:04,VALID,919.125,VALID,0,VALID,79.5885,VALID,354.233,VALID,22.7233,VALID,179,VALID,0,
2015-06-26, 08:36:04,VALID,919.136,VALID,0,VALID,79.9239,VALID,357.457,VALID,22.6825,VALID,168,VALID,0,
2015-06-26, 08:37:04,VALID,919.157,VALID,0,VALID,79.1844,VALID,360.143,VALID,22.7411,VALID,153,VALID,0,
2015-06-26, 08:38:04,VALID,919.138,VALID,0,VALID,79.1234,VALID,362.721,VALID,22.8209,VALID,150,VALID,0,
2015-06-26, 08:39:04,VALID,919.153,VALID,0,VALID,79.3826,VALID,365.622,VALID,22.7411,VALID,159,VALID,0,
2015-06-26, 08:40:04,VALID,919.147,VALID,0,VALID,79.436,VALID,368.953,VALID,22.7996,VALID,160,VALID,0,
2015-06-26, 08:41:04,VALID,919.183,VALID,0,VALID,78.7575,VALID,372.069,VALID,22.8582,VALID,177,VALID,0,
2015-06-26, 08:42:04,VALID,919.172,VALID,0,VALID,79.8248,VALID,375.614,VALID,22.8582,VALID,156,VALID,0,
2015-06-26, 08:43:04,VALID,919.167,VALID,0,VALID,78.8414,VALID,378.408,VALID,22.9167,VALID,174,VALID,0,
2015-06-26, 08:44:04,VALID,919.169,VALID,0,VALID,78.2772,VALID,381.738,VALID,23.0338,VALID,163,VALID,0,
2015-06-26, 08:45:04,VALID,919.169,VALID,0,VALID,78.971,VALID,385.069,VALID,23.0924,VALID,110,VALID,0.157422,
2015-06-26, 08:46:04,VALID,919.172,VALID,0,VALID,77.4539,VALID,388.937,VALID,23.1704,VALID,129,VALID,0,
2015-06-26, 08:47:04,VALID,919.172,VALID,0,VALID,77.6674,VALID,391.945,VALID,23.229,VALID,149,VALID,0,
2015-06-26, 08:48:04,VALID,919.219,VALID,0,VALID,78.2391,VALID,394.954,VALID,23.229,VALID,152,VALID,0,
2015-06-26, 08:49:04,VALID,919.218,VALID,0,VALID,77.3014,VALID,397.317,VALID,23.3461,VALID,152,VALID,0,
2015-06-26, 08:50:04,VALID,919.197,VALID,0,VALID,76.2647,VALID,400.541,VALID,23.4259,VALID,158,VALID,0,
2015-06-26, 08:51:04,VALID,919.235,VALID,0,VALID,76.5543,VALID,403.334,VALID,23.5235,VALID,164,VALID,0,
2015-06-26, 08:52:04,VALID,919.23,VALID,0,VALID,77.8427,VALID,405.913,VALID,23.6602,VALID,156,VALID,0,
2015-06-26, 08:53:04,VALID,919.242,VALID,0,VALID,75.8073,VALID,409.243,VALID,23.834,VALID,158,VALID,0,
2015-06-26, 08:54:04,VALID,919.232,VALID,0,VALID,75.2202,VALID,410.318,VALID,24.0311,VALID,164,VALID,0,
2015-06-26, 08:55:04,VALID,919.236,VALID,0,VALID,74.9992,VALID,413.863,VALID,24.2049,VALID,169,VALID,0,
2015-06-26, 08:56:04,VALID,919.243,VALID,0,VALID,75.2202,VALID,417.516,VALID,24.3611,VALID,168,VALID,0,
2015-06-26, 08:57:04,VALID,919.24,VALID,0,VALID,74.3131,VALID,420.74,VALID,24.5582,VALID,167,VALID,0,
2015-06-26, 08:58:04,VALID,919.265,VALID,0,VALID,74.0691,VALID,425.037,VALID,24.8121,VALID,165,VALID,0,
2015-06-26, 08:59:04,VALID,919.262,VALID,0,VALID,71.9346,VALID,427.508,VALID,24.9859,VALID,166,VALID,0,
2015-06-26, 09:00:04,VALID,919.291,VALID,0,VALID,71.622,VALID,430.194,VALID,25.0445,VALID,170,VALID,0,
2015-06-26, 09:01:04,VALID,919.284,VALID,0,VALID,72.1099,VALID,433.203,VALID,24.9469,VALID,167,VALID,0,
2015-06-26, 09:02:04,VALID,919.278,VALID,0,VALID,72.1785,VALID,436.319,VALID,24.9664,VALID,175,VALID,0,
2015-06-26, 09:03:04,VALID,919.304,VALID,0,VALID,72.796,VALID,439.219,VALID,25.0055,VALID,156,VALID,0,
2015-06-26, 09:04:04,VALID,919.318,VALID,0,VALID,72.7503,VALID,441.691,VALID,25.064,VALID,155,VALID,0,
2015-06-26, 09:05:04,VALID,919.32,VALID,0,VALID,71.9193,VALID,444.054,VALID,25.1636,VALID,182,VALID,0,
2015-06-26, 09:06:04,VALID,919.336,VALID,0,VALID,70.204,VALID,446.848,VALID,25.2007,VALID,177,VALID,0,
2015-06-26, 09:07:04,VALID,919.304,VALID,0,VALID,70.326,VALID,449.104,VALID,25.1012,VALID,167,VALID,0,
2015-06-26, 09:08:04,VALID,919.327,VALID,0,VALID,69.091,VALID,451.575,VALID,25.1226,VALID,167,VALID,0,
2015-06-26, 09:09:04,VALID,919.335,VALID,0,VALID,68.9995,VALID,454.798,VALID,25.2203,VALID,167,VALID,0,
2015-06-26, 09:10:04,VALID,919.346,VALID,0,VALID,68.7785,VALID,457.807,VALID,25.3765,VALID,167,VALID,0,
2015-06-26, 09:11:04,VALID,919.325,VALID,0,VALID,68.0619,VALID,460.493,VALID,25.5894,VALID,167,VALID,0,
2015-06-26, 09:12:04,VALID,919.356,VALID,0,VALID,68.1533,VALID,463.501,VALID,25.8257,VALID,167,VALID,0,
2015-06-26, 09:13:04,VALID,919.347,VALID,0,VALID,65.4394,VALID,467.476,VALID,25.9604,VALID,167,VALID,0,
2015-06-26, 09:14:04,VALID,919.341,VALID,0,VALID,65.0125,VALID,470.162,VALID,26.0015,VALID,176,VALID,0,
2015-06-26, 09:15:04,VALID,919.351,VALID,0,VALID,64.7609,VALID,471.882,VALID,25.9624,VALID,176,VALID,0,
2015-06-26, 09:16:04,VALID,919.371,VALID,0,VALID,65.5919,VALID,474.568,VALID,26.021,VALID,176,VALID,0,
2015-06-26, 09:17:04,VALID,919.378,VALID,0,VALID,64.6771,VALID,477.791,VALID,26.0776,VALID,176,VALID,0,
2015-06-26, 09:18:04,VALID,919.384,VALID,0,VALID,64.5932,VALID,480.477,VALID,26.2339,VALID,139,VALID,0,
2015-06-26, 09:19:04,VALID,919.396,VALID,0,VALID,65.7215,VALID,482.411,VALID,26.3706,VALID,140,VALID,0,
2015-06-26, 09:20:04,VALID,919.395,VALID,0,VALID,66.804,VALID,485.312,VALID,26.3902,VALID,117,VALID,0,
2015-06-26, 09:21:04,VALID,919.395,VALID,0,VALID,64.9134,VALID,488.105,VALID,26.4468,VALID,83,VALID,0,
2015-06-26, 09:22:04,VALID,919.37,VALID,0,VALID,64.1739,VALID,489.824,VALID,26.4683,VALID,83,VALID,0,
2015-06-26, 09:23:04,VALID,919.385,VALID,0,VALID,64.3188,VALID,493.37,VALID,26.2534,VALID,83,VALID,0,
2015-06-26, 09:24:04,VALID,919.402,VALID,0,VALID,66.9641,VALID,496.271,VALID,26.019,VALID,83,VALID,0,
2015-06-26, 09:25:04,VALID,919.411,VALID,0,VALID,66.804,VALID,499.601,VALID,26.0776,VALID,83,VALID,0,
2015-06-26, 09:26:04,VALID,919.43,VALID,0,VALID,64.1587,VALID,506.478,VALID,26.1948,VALID,83,VALID,0,
2015-06-26, 09:27:04,VALID,919.406,VALID,0,VALID,63.9223,VALID,503.147,VALID,26.0972,VALID,83,VALID,0,
2015-06-26, 09:28:04,VALID,919.454,VALID,0,VALID,64.86,VALID,504.866,VALID,25.9995,VALID,43,VALID,0,
2015-06-26, 09:29:04,VALID,919.424,VALID,0,VALID,63.038,VALID,502.932,VALID,26.0776,VALID,42,VALID,0,
2015-06-26, 09:30:04,VALID,919.439,VALID,0,VALID,65.0354,VALID,422.351,VALID,26.019,VALID,42,VALID,0,
2015-06-26, 09:31:04,VALID,919.405,VALID,0,VALID,63.2439,VALID,437.285,VALID,25.9995,VALID,42,VALID,0,
2015-06-26, 09:32:04,VALID,919.413,VALID,0,VALID,60.3546,VALID,522.486,VALID,26.0776,VALID,42,VALID,0,
2015-06-26, 09:33:04,VALID,919.399,VALID,0,VALID,64.0977,VALID,522.594,VALID,26.1578,VALID,42,VALID,0,
2015-06-26, 09:34:04,VALID,919.371,VALID,0,VALID,62.3443,VALID,523.023,VALID,26.0776,VALID,42,VALID,0,
2015-06-26, 09:35:04,VALID,919.381,VALID,0,VALID,63.1295,VALID,528.396,VALID,26.0386,VALID,42,VALID,0,
2015-06-26, 09:36:04,VALID,919.378,VALID,0,VALID,62.1766,VALID,531.189,VALID,26.1968,VALID,42,VALID,0,
2015-06-26, 09:37:04,VALID,919.417,VALID,0,VALID,61.9174,VALID,534.197,VALID,26.0992,VALID,300,VALID,0.263672,
2015-06-26, 09:38:04,VALID,919.379,VALID,0,VALID,60.9111,VALID,534.52,VALID,25.7651,VALID,301,VALID,0,
2015-06-26, 09:39:04,VALID,919.369,VALID,0,VALID,62.2909,VALID,539.247,VALID,25.7847,VALID,358,VALID,0,
2015-06-26, 09:40:04,VALID,919.354,VALID,0,VALID,61.9555,VALID,543.115,VALID,25.9409,VALID,358,VALID,0,
2015-06-26, 09:41:04,VALID,919.319,VALID,0,VALID,61.7573,VALID,554.504,VALID,26.0581,VALID,25,VALID,0,
2015-06-26, 09:42:04,VALID,919.335,VALID,0,VALID,60.0725,VALID,551.818,VALID,26.1948,VALID,360,VALID,0,
2015-06-26, 09:43:04,VALID,919.305,VALID,0,VALID,60.2402,VALID,550.636,VALID,26.2534,VALID,359,VALID,0,
2015-06-26, 09:44:04,VALID,919.275,VALID,0,VALID,61.521,VALID,550.851,VALID,26.3902,VALID,359,VALID,0,
2015-06-26, 09:45:04,VALID,919.3,VALID,0,VALID,63.038,VALID,553,VALID,26.4292,VALID,359,VALID,0,
2015-06-26, 09:46:04,VALID,919.283,VALID,0,VALID,60.1716,VALID,555.041,VALID,26.4878,VALID,295,VALID,0,
2015-06-26, 09:47:04,VALID,919.305,VALID,0,VALID,60.3088,VALID,556.33,VALID,26.4292,VALID,295,VALID,0,
2015-06-26, 09:48:04,VALID,919.317,VALID,0,VALID,60.3241,VALID,561.165,VALID,26.4488,VALID,295,VALID,0,
2015-06-26, 09:49:04,VALID,919.327,VALID,0,VALID,58.9595,VALID,564.066,VALID,26.4488,VALID,295,VALID,0,
2015-06-26, 09:50:04,VALID,919.309,VALID,0,VALID,59.0662,VALID,566,VALID,26.4468,VALID,295,VALID,0,
2015-06-26, 09:51:04,VALID,919.274,VALID,0,VALID,59.5084,VALID,568.364,VALID,26.6246,VALID,295,VALID,0,
2015-06-26, 09:52:04,VALID,919.306,VALID,0,VALID,57.1604,VALID,571.265,VALID,26.7634,VALID,295,VALID,0,
2015-06-26, 09:53:04,VALID,919.279,VALID,0,VALID,58.0371,VALID,571.909,VALID,26.8981,VALID,295,VALID,0,
2015-06-26, 09:54:04,VALID,919.326,VALID,0,VALID,59.0662,VALID,575.455,VALID,26.8785,VALID,295,VALID,0,
2015-06-26, 09:55:04,VALID,919.315,VALID,0,VALID,60.3622,VALID,576.422,VALID,26.7027,VALID,295,VALID,0,
2015-06-26, 09:56:04,VALID,919.288,VALID,0,VALID,59.4245,VALID,575.885,VALID,26.605,VALID,296,VALID,0,
2015-06-26, 09:57:04,VALID,919.301,VALID,0,VALID,60.1488,VALID,579.215,VALID,26.5269,VALID,296,VALID,0,
2015-06-26, 09:58:04,VALID,919.297,VALID,0,VALID,60.7662,VALID,584.372,VALID,26.5464,VALID,304,VALID,0,
2015-06-26, 09:59:04,VALID,919.263,VALID,0,VALID,60.8577,VALID,584.802,VALID,26.6832,INVALID,360,VALID,0,
2015-06-26, 10:00:04,VALID,919.251,VALID,0,VALID,61.5896,VALID,586.736,VALID,26.7788,VALID,13,VALID,0,
2015-06-26, 10:01:04,VALID,919.267,VALID,0,VALID,60.0573,VALID,589.1,VALID,26.896,VALID,305,VALID,0,
2015-06-26, 10:02:04,VALID,919.251,VALID,0,VALID,58.3344,VALID,592.431,VALID,26.8199,VALID,305,VALID,0,
2015-06-26, 10:03:04,VALID,919.296,VALID,0,VALID,59.112,VALID,595.654,VALID,26.7613,VALID,299,VALID,0,
2015-06-26, 10:04:04,VALID,919.283,VALID,0,VALID,59.5465,VALID,595.869,VALID,26.6616,VALID,317,VALID,0,
2015-06-26, 10:05:04,VALID,919.306,VALID,0,VALID,57.7169,VALID,598.662,VALID,26.5054,VALID,308,VALID,0.230469,
2015-06-26, 10:06:04,VALID,919.258,VALID,0,VALID,59.76,VALID,600.059,VALID,26.2339,VALID,288,VALID,0.0632813,
2015-06-26, 10:07:04,VALID,919.305,VALID,0,VALID,60.6443,VALID,602.745,VALID,25.9585,VALID,297,VALID,0,
2015-06-26, 10:08:04,VALID,919.282,VALID,0,VALID,61.9479,VALID,607.687,VALID,25.8218,VALID,285,VALID,0,
2015-06-26, 10:09:04,VALID,919.246,VALID,0,VALID,61.582,VALID,610.051,VALID,25.7437,VALID,285,VALID,0,
2015-06-26, 10:10:04,VALID,919.277,VALID,0,VALID,62.329,VALID,612.952,VALID,25.7632,VALID,285,VALID,0,
2015-06-26, 10:11:04,VALID,919.271,VALID,0,VALID,61.7649,VALID,614.886,VALID,25.9604,VALID,285,VALID,0,
2015-06-26, 10:12:04,VALID,919.26,VALID,0,VALID,61.0864,VALID,615.315,VALID,26.2319,VALID,300,VALID,0,
2015-06-26, 10:13:04,VALID,919.257,VALID,0,VALID,59.4322,VALID,617.464,VALID,26.5249,VALID,292,VALID,0,
2015-06-26, 10:14:04,VALID,919.227,VALID,0,VALID,58.7537,VALID,619.183,VALID,26.5054,VALID,277,VALID,0,
2015-06-26, 10:15:04,VALID,919.209,VALID,0,VALID,59.7828,VALID,620.473,VALID,26.4077,VALID,294,VALID,0,
2015-06-26, 10:16:04,VALID,919.214,VALID,0,VALID,60.4384,VALID,621.547,VALID,26.5835,VALID,319,VALID,0,
2015-06-26, 10:17:04,VALID,919.201,VALID,0,VALID,58.281,VALID,624.878,VALID,26.7202,VALID,310,VALID,0,
2015-06-26, 10:18:04,VALID,919.196,VALID,0,VALID,56.8631,VALID,629.283,VALID,26.857,VALID,289,VALID,0,
2015-06-26, 10:19:04,VALID,919.196,VALID,0,VALID,57.5797,VALID,631.969,VALID,26.6226,VALID,296,VALID,0,
2015-06-26, 10:20:04,VALID,919.184,VALID,0,VALID,58.7003,VALID,633.58,VALID,26.4077,VALID,321,VALID,0,
2015-06-26, 10:21:04,VALID,919.175,VALID,0,VALID,59.5236,VALID,636.481,VALID,26.3491,VALID,291,VALID,0,
2015-06-26, 10:22:04,VALID,919.177,VALID,0,VALID,58.8528,VALID,637.556,VALID,26.3882,VALID,283,VALID,0,
2015-06-26, 10:23:04,VALID,919.191,VALID,0,VALID,60.5604,VALID,639.06,VALID,26.5249,VALID,283,VALID,0,
2015-06-26, 10:24:04,VALID,919.18,VALID,0,VALID,59.5084,VALID,640.994,VALID,26.8374,VALID,283,VALID,0,
2015-06-26, 10:25:04,VALID,919.18,VALID,0,VALID,58.7155,VALID,642.606,VALID,26.9937,VALID,322,VALID,0,
2015-06-26, 10:26:04,VALID,919.205,VALID,0,VALID,56.52,VALID,644.969,VALID,27.0523,VALID,318,VALID,0,
2015-06-26, 10:27:04,VALID,919.226,VALID,0,VALID,57.5949,VALID,647.655,VALID,27.0328,VALID,262,VALID,0,
2015-06-26, 10:28:04,VALID,919.234,VALID,0,VALID,57.8465,VALID,647.763,VALID,27.0112,VALID,262,VALID,0,
2015-06-26, 10:29:04,VALID,919.259,VALID,0,VALID,57.816,VALID,650.986,VALID,27.0523,VALID,308,VALID,0,
2015-06-26, 10:30:04,VALID,919.278,VALID,0,VALID,58.22,VALID,650.234,VALID,27.0719,VALID,34,VALID,0,
2015-06-26, 10:31:04,VALID,919.299,VALID,0,VALID,58.8451,VALID,652.92,VALID,27.1716,VALID,13,VALID,0,
2015-06-26, 10:32:04,VALID,919.276,VALID,0,VALID,58.0676,VALID,654.746,VALID,27.1911,VALID,22,VALID,0,
2015-06-26, 10:33:04,VALID,919.301,VALID,0,VALID,59.7371,VALID,656.251,VALID,27.3063,VALID,258,VALID,0,
2015-06-26, 10:34:04,VALID,919.287,VALID,0,VALID,58.4945,VALID,660.333,VALID,27.4647,VALID,260,VALID,0,
2015-06-26, 10:35:04,VALID,919.285,VALID,0,VALID,60.0039,VALID,663.557,VALID,27.367,VALID,256,VALID,0,
2015-06-26, 10:36:04,VALID,919.247,VALID,0,VALID,55.4604,VALID,663.019,VALID,27.4061,VALID,279,VALID,0,
2015-06-26, 10:37:04,VALID,919.235,VALID,0,VALID,57.0994,VALID,663.986,VALID,27.4451,VALID,291,VALID,0,
2015-06-26, 10:38:04,VALID,919.241,VALID,0,VALID,58.2886,VALID,666.35,VALID,27.3649,VALID,319,VALID,0,
2015-06-26, 10:39:04,VALID,919.207,VALID,0,VALID,59.8514,VALID,669.466,VALID,27.404,VALID,13,VALID,0,
2015-06-26, 10:40:04,VALID,919.177,VALID,0,VALID,55.468,VALID,671.83,VALID,27.4256,VALID,316,VALID,0,
2015-06-26, 10:41:04,VALID,919.183,VALID,0,VALID,57.0155,VALID,673.978,VALID,27.4256,VALID,346,VALID,0,
2015-06-26, 10:42:04,VALID,919.188,VALID,0,VALID,60.1106,VALID,676.449,VALID,27.6015,INVALID,360,VALID,0,
2015-06-26, 10:43:04,VALID,919.209,VALID,0,VALID,55.5518,VALID,677.202,VALID,27.7383,VALID,319,VALID,0,
2015-06-26, 10:44:04,VALID,919.199,VALID,0,VALID,57.3052,VALID,678.061,VALID,27.836,VALID,360,VALID,0.441406,
2015-06-26, 10:45:04,VALID,919.204,VALID,0,VALID,56.6344,VALID,679.78,VALID,27.8534,VALID,324,VALID,0,
2015-06-26, 10:46:04,VALID,919.177,VALID,0,VALID,59.7676,VALID,681.392,VALID,27.8751,VALID,6,VALID,0.003125,
2015-06-26, 10:47:04,VALID,919.17,VALID,0,VALID,59.3102,VALID,682.144,VALID,27.8143,VALID,322,VALID,0,
2015-06-26, 10:48:04,VALID,919.171,VALID,0,VALID,54.3092,VALID,683.755,VALID,27.8751,VALID,350,VALID,0.514453,
2015-06-26, 10:49:04,VALID,919.116,VALID,0,VALID,58.0142,VALID,686.012,VALID,27.7752,VALID,10,VALID,0.392969,
2015-06-26, 10:50:04,VALID,919.156,VALID,0,VALID,59.4169,VALID,688.59,VALID,27.836,VALID,26,VALID,0.0898438,
2015-06-26, 10:51:04,VALID,919.141,VALID,0,VALID,54.0271,VALID,691.169,VALID,27.8339,VALID,308,VALID,0,